Regional Weather Roundup
Issued by NWS

Home | Current Version | Previous Version | Graphics & Text | Print | Product List | Glossary On
Versions: 1 2 3 4 5 6 7 8 9 10 11 12 13 14 15 16 17 18 19 20 21 22 23 24 25 26 27
000
ASUS45 KCYS 221110
RWRWY

WYOMING REGIONAL WEATHER ROUNDUP
NATIONAL WEATHER SERVICE CHEYENNE WY
500 AM MDT SUN OCT 22 2017

NOTE:  "FAIR" INDICATES FEW OR NO CLOUDS BELOW 12,000 FEET
WITH NO SIGNIFICANT WEATHER AND/OR OBSTRUCTIONS TO VISIBILITY.

WYZ001-221200-
YELLOWSTONE NATIONAL PARK

CITY           SKY/WX    TMP DP  RH WIND       PRES   REMARKS
LK YELLOWSTONE   N/A     29  27  92 VRB5      30.21R WCI  24
W YELLOWSTONE  NOT AVBL

$$
WYZ002>013-054>058-071-098>099-221200-
NORTHERN WYOMING

CITY           SKY/WX    TMP DP  RH WIND       PRES   REMARKS
JACKSON        CLOUDY    34  28  79 SW8       30.24S WCI  27
CODY           FAIR      48  27  44 W17G38    29.99F
GREYBULL       FAIR      30  19  63 S6        30.02F WCI  24
WORLAND        FAIR      26  20  77 S5        30.02F WCI  20
SHERIDAN       FAIR      36  18  48 CALM      29.89S
BUFFALO        FAIR      34  13  41 SW8       29.92F WCI  27
GILLETTE       FAIR      42  16  34 SW18      29.93R
HULETT         FAIR      37  18  44 SW13      29.94F WCI  29
NEWCASTLE      FAIR      28  18  64 NE6       30.02R WCI  22

$$
WYZ014>020-022>026-101>103-221200-
CENTRAL WYOMING

CITY           SKY/WX    TMP DP  RH WIND       PRES   REMARKS
BIG PINEY      CLOUDY    22  16  78 NW5       30.29S WCI  16
PINEDALE       CLOUDY    32  23  69 W6        30.27S WCI  26
DUBOIS         FAIR      34  25  69 NW25G35   30.13S WCI  21
LANDER         FAIR      29  19  66 E5        30.08F WCI  24
RIVERTON       FAIR      34  19  54 SW12      30.09S WCI  25
CASPER         FAIR      39  17  41 SW17      30.07S WCI  30
DOUGLAS        FAIR      39  19  44 W9        30.03F WCI  33

$$
WYZ021-027>030-104>119-221200-
SOUTHERN WYOMING

CITY           SKY/WX    TMP DP  RH WIND       PRES   REMARKS
EVANSTON       MOCLDY    38  20  48 W15       30.34R WCI  29
KEMMERER       CLOUDY    34  21  60 SW9       30.30S WCI  26
FORT BRIDGER   FAIR      37  23  55 W8        30.35R WCI  31
ROCK SPRINGS   MOCLDY    37  17  44 SW23G31   30.30R WCI  26
DIXON          CLOUDY    34  22  61 SW8       30.36R WCI  27
RAWLINS        FAIR      37  16  42 SW35G47   30.17F WCI  24
SARATOGA       CLOUDY    36  21  55 SW8G20    30.28R WCI  29
LARAMIE        FAIR      35  19  52 W24G35    30.16R WCI  23
CHEYENNE       FAIR      42  18  37 W14G23    30.12S
TORRINGTON     FAIR      47  16  29 W15G23    30.05R
PINE BLUFFS    FAIR      30  19  64 MISG      30.12R

$$




USA.gov is the U.S. government's official web portal to all federal, state and local government web resources and services.